EDT,Max TemperatureF,Mean TemperatureF,Min TemperatureF,Max Dew PointF,MeanDew PointF,Min DewpointF,Max Humidity, Mean Humidity, Min Humidity, Max Sea Level PressureIn, Mean Sea Level PressureIn, Min Sea Level PressureIn, Max VisibilityMiles, Mean VisibilityMiles, Min VisibilityMiles, Max Wind SpeedMPH, Mean Wind SpeedMPH, Max Gust SpeedMPH,PrecipitationIn, CloudCover, Events, WindDirDegrees
2012-4-1,57,47,37,41,36,32,89,70,51,29.95,29.80,29.67,10,9,3,18,7,24,0.06,8,Rain,272
2012-4-2,57,46,35,36,31,18,85,58,31,30.05,29.95,29.78,10,9,6,15,7,20,0.00,4,,11
2012-4-3,63,46,28,34,27,21,78,51,23,30.06,29.96,29.84,10,10,10,15,6,21,T,5,,122
2012-4-4,59,47,34,36,31,24,79,56,33,29.91,29.87,29.83,10,10,10,23,11,30,0.00,4,,333
2012-4-5,51,41,30,33,28,25,85,62,39,30.05,29.96,29.89,10,10,10,18,9,24,0.00,4,,360
2012-4-6,55,42,28,29,23,13,85,52,19,30.23,30.17,30.06,10,10,9,22,10,26,0.00,0,,353
2012-4-7,59,44,29,31,20,11,85,51,16,30.33,30.26,30.17,10,10,10,16,5,21,0.00,1,,325
2012-4-8,59,48,36,41,27,17,68,46,24,30.16,30.04,29.97,10,10,10,23,10,33,T,5,,262
2012-4-9,59,48,37,37,28,20,76,50,24,29.99,29.87,29.78,10,10,9,32,11,41,0.01,4,Rain,267
2012-4-10,42,38,33,34,30,22,92,70,48,29.96,29.88,29.79,10,7,0,16,9,24,0.19,7,Rain-Snow,268
2012-4-11,48,41,33,34,32,30,96,75,53,30.18,30.04,29.91,10,7,1,23,10,28,0.05,7,Rain-Snow,301
2012-4-12,55,42,28,33,28,24,92,62,32,30.26,30.21,30.16,10,10,9,15,6,26,0.00,3,,328
2012-4-13,63,46,28,31,27,23,78,51,23,30.31,30.24,30.20,10,10,10,12,4,16,0.00,3,,85
2012-4-14,58,49,39,52,40,27,93,66,38,30.20,30.10,30.00,10,8,2,18,8,24,0.03,8,Rain,176
2012-4-15,80,68,55,57,53,49,93,66,39,29.99,29.95,29.90,10,8,2,26,10,33,0.07,7,Rain,206
2012-4-16,81,67,53,56,50,40,65,52,38,30.13,29.90,29.82,10,10,10,33,16,47,0.00,5,,216
2012-4-17,61,50,39,39,35,30,86,61,35,30.33,30.28,30.15,10,10,10,18,7,28,0.00,5,,311
2012-4-18,63,48,32,34,30,23,82,54,25,30.34,30.21,30.06,10,10,10,10,4,21,0.00,5,,113
2012-4-19,71,57,43,46,42,34,86,61,35,30.09,30.03,29.94,10,10,9,14,6,24,T,5,,200
2012-4-20,78,65,51,48,45,42,77,54,31,29.92,29.80,29.70,10,10,10,32,10,40,0.00,6,,206
2012-4-21,51,46,40,47,39,37,96,90,83,29.97,29.87,29.75,10,8,2,15,10,22,0.50,8,Rain,338
2012-4-22,47,43,39,37,35,33,85,78,70,29.96,29.87,29.75,10,10,6,23,13,28,T,8,Rain,12
2012-4-23,46,38,30,34,29,22,92,67,42,29.72,29.58,29.50,10,10,10,35,18,45,T,8,Rain,339
2012-4-24,55,44,33,28,24,16,82,52,22,29.68,29.55,29.45,10,10,10,26,12,38,0.00,6,,263
2012-4-25,64,50,36,33,28,24,76,50,23,29.86,29.81,29.70,10,10,10,12,6,16,T,4,Rain,272
2012-4-26,62,52,41,55,45,34,93,74,54,29.94,29.72,29.63,10,7,1,24,10,30,0.49,8,Rain-Thunderstorm,270
2012-4-27,49,39,28,31,25,20,78,56,34,30.27,30.15,29.97,10,10,10,22,10,26,T,5,Snow,329
2012-4-28,45,36,27,31,27,24,85,65,45,30.29,30.23,30.16,10,10,7,12,4,14,0.01,7,Rain,84
2012-4-29,62,44,26,28,23,17,85,53,20,30.33,30.27,30.23,10,10,10,15,5,18,0.00,4,,9
2012-4-30,79,56,33,57,38,19,78,54,30,30.26,30.06,29.88,10,10,4,17,8,23,0.19,6,Rain,143